Weather History for FBFT - August, 2013

Change the Weather History Date:

Saturday, August 10, 2013

  Actual Average Record
Temperature  
Mean Temperature 66 °F -  
Max Temperature 80 °F 80 °F 87 °F (2004)
Min Temperature 52 °F 50 °F 31 °F (2012)
Cooling Degree Days 1    
Growing Degree Days 16 (Base 50)    
Moisture  
Dew Point 50 °F    
Average Humidity 58    
Maximum Humidity 88    
Minimum Humidity 33    
Precipitation  
Precipitation 0.00 in - - ()
Sea Level Pressure  
Sea Level Pressure 30.11 in    
Wind  
Wind Speed 6 mph ()    
Max Wind Speed 16 mph    
Max Gust Speed -    
Visibility 6.1 miles    
Events      
Averages and records for this station are not official NWS values.
T = Trace of Precipitation, MM = Missing Value Source: Averaged Metar Reports

Daily Weather History Graph

Daily Weather History Graph

Search for Another Location

Airport or City:

Trip Planner

Search our weather history database for the weather conditions in past years. The results will help you decide how hot, cold, wet, or windy it might be!

Date:

Astronomy

Aug. 10, 2013 Rise Set
Actual Time 6:36 AM CAT 5:54 PM CAT
Civil Twilight 6:13 AM CAT 6:17 PM CAT
Nautical Twilight 5:47 AM CAT 6:44 PM CAT
Astronomical Twilight 5:20 AM CAT 7:10 PM CAT
Moon 8:33 AM CAT (8/10) 9:05 PM CAT (8/10)
Length of Visible Light 12h 04m
Length of Day
11h 18m
Waxing Crescent, 12% of the Moon is Illuminated
Aug 10
Waxing Crescent
Aug 14
First Quarter
Aug 21
Full
Aug 28
Last Quarter
Sep 5
New

Hourly Weather History & Observations

Time (CAT) Temp. Dew Point Humidity Pressure Visibility Wind Dir Wind Speed Gust Speed Precip Events Conditions
12:00 AM 62.6 °F 42.8 °F 48% 30.12 in - WNW 5.8 mph - N/A   Clear
1:00 AM 60.8 °F 42.8 °F 52% 30.09 in - West 6.9 mph - N/A   Clear
2:00 AM 60 °F 41 °F 38%  in 6 mi WSW 4.6 mph - -   Partly Cloudy
2:00 AM 59.0 °F 41.0 °F 51% 30.06 in - WSW 4.6 mph - N/A   Clear
3:00 AM 57.2 °F 37.4 °F 48% 30.06 in - Variable 1.2 mph - N/A   Clear
4:00 AM 57.2 °F 37.4 °F 48% 30.06 in - Variable 1.2 mph - N/A   Clear
5:00 AM 53.6 °F 37.4 °F 54% 30.09 in - SE 5.8 mph - N/A   Clear
6:00 AM 55.4 °F 46.4 °F 72% 30.09 in - ESE 6.9 mph - N/A   Clear
7:00 AM 51.8 °F 48.2 °F 88% 30.12 in 6.2 mi SE 6.9 mph - N/A   Scattered Clouds
8:00 AM 59 °F 55 °F 83%  in 6 mi East 13.8 mph - -   Partly Cloudy
8:00 AM 59.0 °F 55.4 °F 88% 30.15 in 6.2 mi East 13.8 mph - N/A   Overcast
9:00 AM - - N/A% 30.18 in 6.2 mi East 11.5 mph - N/A   Mostly Cloudy
11:00 AM 69.8 °F 55.4 °F 60% 30.15 in - SSE 9.2 mph - N/A   Clear
12:00 PM 73.4 °F 55.4 °F 53% 30.12 in - East 9.2 mph - N/A   Clear
1:00 PM 77.0 °F 55.4 °F 47% 30.09 in - ESE 3.5 mph - N/A   Clear
2:00 PM 77 °F 53 °F 33%  in 6 mi SE 2.3 mph - -   Partly Cloudy
2:00 PM 77.0 °F 53.6 °F 44% 30.09 in - Variable 2.3 mph - N/A   Clear
3:00 PM 78.8 °F 51.8 °F 39% 30.06 in 6.2 mi Variable 2.3 mph - N/A   Partly Cloudy
4:00 PM 78.8 °F 53.6 °F 42% 30.06 in 6.2 mi SE 10.4 mph - N/A   Partly Cloudy
5:00 PM 77.0 °F 53.6 °F 44% 30.06 in - SSE 12.7 mph - N/A   Clear
6:00 PM 71.6 °F 53.6 °F 53% 30.09 in - SE 16.1 mph - N/A   Clear
7:00 PM 68.0 °F 53.6 °F 60% 30.12 in - SE 12.7 mph - N/A   Clear
8:00 PM 65 °F 54 °F 58%  in 6 mi ESE 10.4 mph - -   Partly Cloudy
8:00 PM 64.4 °F 53.6 °F 68% 30.15 in - ESE 10.4 mph - N/A   Clear
9:00 PM 62.6 °F 53.6 °F 72% 30.18 in - SE 6.9 mph - N/A   Clear
10:00 PM 60.8 °F 53.6 °F 77% 30.18 in - East 11.5 mph - N/A   Clear
11:00 PM 59.0 °F 53.6 °F 82% 30.21 in - East 9.2 mph - N/A   Clear